CAPE
815 1300 1629 1425 1575 1538 1477 1103 878 1263 1350 1295 1200 1272 1595 1578 1368 1461 1461 1441 1384 1408 1332 1240 1352 1480 1395 1594 1528 1512 1411 1179 1283 1650 1796 1788 1570 1645 1718 1605 1536 1300 1425
531 1326 1753 1773 1628 1202 1721 1245 1433 1325 990 1164 1303 1114 1042 1343 1609 1712 1750 1681 1522 1379 1290 1368 1298 1556 1346 1517 1581 1519 1349 1265 1417 1609 1475 1372 1276 1662 1562 1597 1311 1281 1255
759 1509 1640 1658 1721 1251 808 1229 1320 1355 1002 748 609 375 659 802 898 987 1092 1401 1693 1632 1483 1412 1379 1373 1473 1359 1626 1437 1297 1396 1449 1367 1325 1218 1276 1307 1279 1332 1337 1343 1176
1127 1428 1325 1564 1733 1540 1448 1128 818 689 501 277 95 36 63 165 180 311 507 672 759 1391 1638 1647 1468 1357 1405 1386 1353 1558 1454 1437 1545 1098 1010 1284 1352 1241 1296 1236 1249 1259 998
1169 1293 1370 1610 1821 1448 1015 537 381 292 201 158 114 70 46 32 29 70 103 170 253 636 930 1336 1669 1584 1404 1334 1371 1328 1493 1648 1080 892 1080 1338 1439 1071 896 893 1050 1046 889
933 1112 1469 1671 1664 1395 616 544 197 267 234 202 23 343 107 23 101 52 104 146 156 222 493 555 898 1434 1650 1608 1406 1363 1499 1150 703 1003 1159 1129 1216 1121 1041 810 803 982 971
840 1062 1152 1487 1398 819 448 7 42 258 324 59 0 3 2 0 0 0 0 1 39 376 383 69 173 807 1144 1312 1504 1491 1526 897 883 843 967 1055 1110 1143 896 689 500 704 781
801 969 1045 1447 988 494 0 0 0 3 0 0 0 0 0 0 0 0 0 0 0 0 4 0 0 61 188 523 1079 1581 1134 556 615 696 600 502 669 872 1046 741 556 579 519
795 927 1149 480 378 327 0 0 0 0 0 0 0 0 0 0 0 0 0 0 0 0 0 0 0 0 0 2 94 710 998 620 760 584 500 649 638 931 925 944 612 595 536
886 1005 573 30 0 0 0 0 0 0 0 0 0 0 0 0 0 0 0 0 0 0 0 0 0 0 0 0 0 0 0 0 294 316 234 353 683 834 868 671 887 689 637
514 539 28 0 0 0 0 0 0 0 0 0 0 0 0 0 0 0 0 0 0 0 0 0 0 0 0 0 0 0 0 0 0 0 0 5 431 764 828 926 749 914 719
46 30 0 0 0 0 0 0 0 0 0 0 0 0 0 0 0 0 0 0 0 0 0 0 0 0 0 0 0 0 0 0 0 0 0 0 5 256 358 591 828 893 835
15 0 0 0 0 0 0 0 0 0 0 0 0 0 0 0 0 0 0 0 0 0 0 0 0 0 0 0 0 0 0 0 0 0 0 0 0 0 0 0 3 68 240
28 0 0 0 0 0 0 0 0 0 0 0 0 0 0 0 0 0 0 0 0 0 0 0 0 0 0 0 0 0 0 0 0 0 0 0 0 0 0 0 0 0 0
1 0 0 0 0 0 0 0 0 0 0 0 0 0 0 0 0 0 0 0 0 0 0 0 0 0 0 0 0 0 0 0 0 0 0 0 0 0 0 0 0 0 0
0 0 0 0 0 0 0 0 0 0 0 0 0 0 0 0 0 0 0 0 0 0 0 0 0 0 0 0 0 0 0 0 0 0 0 0 0 0 0 0 0 0 0
0 0 0 0 0 0 0 0 0 0 0 0 0 0 0 0 0 0 0 0 0 0 0 0 0 0 0 0 0 0 0 0 0 0 0 0 0 0 0 0 0 0 0
0 0 0 0 0 0 0 0 0 0 0 0 0 0 0 0 0 0 0 0 0 0 0 0 0 0 0 0 0 0 0 0 0 0 0 0 0 0 0 0 0 0 0
0 0 0 0 0 0 0 0 0 0 0 0 0 0 0 0 0 0 0 0 0 0 0 0 0 0 0 0 0 0 0 0 0 0 0 0 0 0 0 0 0 0 0
0 0 0 0 0 0 0 0 0 0 0 0 0 0 0 0 0 0 0 0 0 0 0 0 0 0 0 0 0 0 0 0 0 0 0 0 0 0 0 0 0 0 0
0 0 0 0 0 0 0 0 0 0 0 0 0 0 0 0 0 0 0 0 0 0 0 0 0 0 0 0 0 0 0 0 0 0 0 0 0 0 0 0 0 0 0
0 0 0 0 0 0 0 0 0 0 0 0 0 0 0 0 0 0 0 0 0 0 0 0 0 0 0 0 0 0 0 0 0 0 0 0 0 0 0 0 0 0 0
0 0 0 0 0 0 0 0 0 0 0 0 0 0 0 0 0 0 0 0 0 0 0 0 0 0 0 0 0 0 0 0 0 0 0 0 0 0 0 0 0 0 0
0 0 0 0 0 0 0 0 0 0 0 0 0 0 0 0 0 0 0 0 0 0 0 0 0 0 0 0 0 0 0 0 0 0 0 0 0 0 0 0 0 0 0
0 0 0 0 0 0 0 0 0 0 0 0 0 0 0 0 0 0 0 0 0 0 0 0 0 0 0 0 0 0 0 0 0 0 0 0 0 0 0 0 0 0 0
0 0 0 0 0 0 0 0 0 0 0 0 0 0 0 0 0 0 0 0 0 0 0 0 0 0 0 0 0 0 0 0 0 0 0 0 0 0 0 0 0 0 0
CIN
-40 -7 0 -1 -1 -1 0 0 0 -2 -1 -3 -3 -2 -2 -2 -3 -4 -4 -2 -1 0 -1 -3 0 0 0 0 0 0 0 0 0 0 0 0 -1 0 0 0 0 0 0
-91 -14 0 -2 0 0 0 -1 0 0 -2 -2 -2 -3 -10 -1 -1 -2 0 -1 0 0 0 0 0 0 0 0 0 0 0 0 0 0 -1 -3 -4 -1 0 -1 -3 0 0
-65 -3 0 -2 0 -2 -21 -1 0 0 -9 -32 -73 -173 -89 -60 -40 -31 -22 -2 0 0 0 0 0 0 0 0 0 0 0 0 0 0 -4 0 0 -3 -3 -4 -2 -1 0
-24 -8 -4 0 -1 -1 0 -2 -21 -38 -88 -180 -330 -429 -405 -333 -336 -257 -185 -140 -122 -3 0 0 0 0 0 0 0 0 0 0 0 -14 -2 0 0 -3 -2 -4 -3 0 0
-15 -13 0 -1 -1 -2 -12 -84 -119 -154 -210 -240 -301 -358 -422 -459 -477 -414 -378 -337 -304 -152 -62 -4 0 0 0 -2 0 0 0 0 -10 -15 -1 0 0 -2 -7 -7 -5 0 -1
-49 -28 -1 0 -1 -4 -70 -87 -213 -165 -188 -219 -421 -178 -344 -474 -370 -451 -376 -340 -364 -324 -188 -170 -63 -1 0 0 0 0 0 -10 -67 -6 -1 0 0 -5 -2 -8 -10 -4 -3
-82 -44 -36 -7 -7 -47 -125 -309 -238 -163 -152 -275 0 -347 -312 0 0 0 0 0 -482 -235 -248 -416 -385 -85 -14 -2 0 0 0 -32 -7 -9 -1 0 0 -3 -1 -4 -9 -5 -6
-103 -66 -55 -14 -45 -131 0 0 0 -156 0 0 0 0 0 0 0 0 0 0 0 -19 -294 0 0 -494 -352 -169 -13 0 -11 -130 -79 -36 -42 -59 -18 -2 0 0 -6 -4 -6
-101 -77 -49 -153 -177 -179 0 0 0 0 0 0 0 0 0 0 0 0 0 0 0 0 0 0 0 0 0 -144 -485 -83 -42 -86 -47 -69 -81 -45 -39 -1 0 -1 -1 -4 -6
-98 -86 -144 -392 0 0 0 0 0 0 0 0 0 0 0 0 0 0 0 0 0 0 0 0 0 0 0 0 0 0 0 0 -199 -177 -217 -135 -54 -14 -9 -12 -2 -3 -3
-185 -174 -278 0 0 0 0 0 0 0 0 0 0 0 0 0 0 0 0 0 0 0 0 0 0 0 0 0 0 0 0 0 0 0 0 -257 -106 -26 -11 -3 -12 -2 -6
-423 -229 0 0 0 0 0 0 0 0 0 0 0 0 0 0 0 0 0 0 0 0 0 0 0 0 0 0 0 0 0 0 0 0 0 0 -187 -151 -118 -57 -21 -10 -6
-492 -1 0 0 0 0 0 0 0 0 0 0 0 0 0 0 0 0 0 0 0 0 0 0 0 0 0 0 0 0 0 0 0 0 0 0 0 0 0 0 -59 -317 -133
-495 0 0 0 0 0 0 0 0 0 0 0 0 0 0 0 0 0 0 0 0 0 0 0 0 0 0 0 0 0 0 0 0 0 0 0 0 0 0 0 0 0 0
0 0 0 0 0 0 0 0 0 0 0 0 0 0 0 0 0 0 0 0 0 0 0 0 0 0 0 0 0 0 0 0 0 0 0 0 0 0 0 0 0 0 0
0 0 0 0 0 0 0 0 0 0 0 0 0 0 0 0 0 0 0 0 0 0 0 0 0 0 0 0 0 0 0 0 0 0 0 0 0 0 0 0 0 0 0
0 0 0 0 0 0 0 0 0 0 0 0 0 0 0 0 0 0 0 0 0 0 0 0 0 0 0 0 0 0 0 0 0 0 0 0 0 0 0 0 0 0 0
0 0 0 0 0 0 0 0 0 0 0 0 0 0 0 0 0 0 0 0 0 0 0 0 0 0 0 0 0 0 0 0 0 0 0 0 0 0 0 0 0 0 0
0 0 0 0 0 0 0 0 0 0 0 0 0 0 0 0 0 0 0 0 0 0 0 0 0 0 0 0 0 0 0 0 0 0 0 0 0 0 0 0 0 0 0
0 0 0 0 0 0 0 0 0 0 0 0 0 0 0 0 0 0 0 0 0 0 0 0 0 0 0 0 0 0 0 0 0 0 0 0 0 0 0 0 0 0 0
0 0 0 0 0 0 0 0 0 0 0 0 0 0 0 0 0 0 0 0 0 0 0 0 0 0 0 0 0 0 0 0 0 0 0 0 0 0 0 0 0 0 0
0 0 0 0 0 0 0 0 0 0 0 0 0 0 0 0 0 0 0 0 0 0 0 0 0 0 0 0 0 0 0 0 0 0 0 0 0 0 0 0 0 0 0
0 0 0 0 0 0 0 0 0 0 0 0 0 0 0 0 0 0 0 0 0 0 0 0 0 0 0 0 0 0 0 0 0 0 0 0 0 0 0 0 0 0 0
0 0 0 0 0 0 0 0 0 0 0 0 0 0 0 0 0 0 0 0 0 0 0 0 0 0 0 0 0 0 0 0 0 0 0 0 0 0 0 0 0 0 0
0 0 0 0 0 0 0 0 0 0 0 0 0 0 0 0 0 0 0 0 0 0 0 0 0 0 0 0 0 0 0 0 0 0 0 0 0 0 0 0 0 0 0
0 0 0 0 0 0 0 0 0 0 0 0 0 0 0 0 0 0 0 0 0 0 0 0 0 0 0 0 0 0 0 0 0 0 0 0 0 0 0 0 0 0 0
Wind_Speed
6 7 8 6 3 7 4 9 7 6 9 10 10 9 11 10 9 8 9 10 9 10 10 9 7 8 9 9 8 7 7 8 7 7 7 7 7 8 9 8 10 9 11
11 9 9 7 7 7 7 9 7 8 9 9 11 11 11 12 11 11 12 11 11 10 10 10 8 8 9 9 9 8 8 8 9 8 8 7 5 8 8 9 8 10 10
10 8 7 6 9 9 8 8 10 11 12 12 12 12 12 13 12 13 13 13 13 11 11 10 9 8 9 10 8 7 8 8 8 8 7 5 5 5 5 6 8 9 10
10 8 7 7 10 9 10 11 12 12 12 11 13 13 13 13 13 13 12 13 14 14 13 11 10 9 9 9 9 7 6 8 9 7 4 4 3 2 5 6 8 8 7
9 8 8 9 11 11 12 12 12 12 12 12 12 11 13 11 11 12 12 13 13 14 14 14 14 10 9 8 9 8 6 9 9 5 5 4 3 3 0 4 7 7 6
9 8 9 9 11 13 13 12 11 10 11 12 11 12 12 12 12 12 13 13 14 13 14 15 16 13 13 11 7 7 8 9 6 6 5 4 4 7 6 1 2 3 5
10 8 9 12 13 15 13 13 12 11 13 12 12 10 11 10 11 12 12 12 13 15 16 16 15 14 15 15 13 4 9 9 6 7 7 7 7 10 7 4 2 3 3
11 10 10 14 14 15 14 13 13 12 12 12 12 11 11 11 11 12 12 11 12 12 13 14 15 15 16 15 15 9 10 9 6 7 8 7 12 13 12 3 3 5 5
10 10 10 12 13 14 14 14 13 12 12 12 11 11 11 11 12 11 11 11 11 12 13 14 15 16 17 18 18 18 15 14 9 7 8 6 12 11 12 11 3 3 5
10 10 12 11 11 12 12 14 13 12 12 12 11 11 12 12 12 12 11 11 11 12 13 14 15 15 17 18 18 17 16 14 9 7 8 10 12 12 11 9 8 4 5
11 11 11 11 11 11 11 11 12 12 12 12 11 12 10 6 8 9 12 11 12 13 13 14 15 15 14 17 19 17 14 7 8 6 8 17 18 15 10 10 7 8 4
16 11 12 12 12 11 8 9 8 8 5 6 7 7 6 7 7 9 11 14 13 14 14 15 15 15 11 7 7 11 7 8 7 7 8 16 15 16 20 23 15 10 7
17 11 13 12 12 11 8 6 4 4 4 5 7 6 7 6 5 5 4 5 5 9 6 8 8 8 10 7 7 7 7 7 5 5 10 13 15 17 17 18 18 19 19
19 18 15 13 12 11 7 6 6 6 5 5 6 7 6 4 5 5 4 5 5 5 7 7 5 8 9 10 9 9 9 7 5 4 7 13 14 16 16 16 17 17 17
18 17 16 15 13 11 10 7 7 6 5 6 6 6 6 6 5 5 5 4 5 5 6 6 6 6 7 8 8 8 8 8 7 4 4 14 15 17 17 16 15 15 16
19 19 17 17 15 13 11 11 8 7 7 6 6 6 7 6 6 5 5 5 4 4 5 5 5 5 5 6 7 8 7 6 6 7 5 6 14 16 17 17 17 18 17
20 19 19 18 16 15 14 11 8 8 8 7 7 8 8 7 7 7 5 5 4 4 6 5 5 5 4 4 6 5 5 4 4 7 6 5 6 11 15 16 17 17 16
18 20 19 15 17 17 13 11 9 9 8 7 7 7 9 8 8 7 5 5 5 4 4 4 4 4 4 4 4 4 4 2 3 6 5 5 6 6 7 14 15 16 16
22 21 20 19 20 18 14 11 10 11 8 8 8 7 10 9 9 7 5 5 5 4 4 3 4 3 3 4 4 3 4 1 2 1 7 5 6 5 5 9 12 12 15
20 20 19 17 18 16 10 9 7 7 7 7 8 8 11 8 9 7 6 6 6 4 4 3 4 3 3 4 4 5 4 1 2 3 5 7 6 6 7 8 7 7 11
19 19 21 20 20 14 10 10 8 9 9 8 8 11 11 10 10 9 6 7 6 5 4 4 3 3 3 4 4 4 3 3 3 4 6 6 7 6 9 7 6 6 8
22 22 22 22 20 18 12 11 7 9 7 8 8 9 10 11 11 9 9 7 7 5 5 4 3 2 2 3 3 2 3 2 3 9 6 4 7 5 9 9 10 10 9
20 22 22 25 24 20 18 11 4 7 4 6 9 9 10 12 11 10 9 8 8 6 5 5 4 4 2 2 0 1 2 3 7 2 10 6 7 9 9 12 13 12 12
23 21 23 23 23 21 21 17 17 12 11 10 10 9 10 12 12 11 10 9 9 6 7 6 5 4 4 2 2 4 4 4 4 6 3 9 11 9 13 10 11 13 13
18 19 20 22 22 23 22 21 17 15 11 8 8 13 12 11 12 11 11 10 9 7 7 8 7 6 5 3 3 3 4 4 7 7 11 8 9 9 9 10 11 11 12
13 16 17 22 23 24 24 24 24 21 16 11 11 11 10 9 9 11 11 10 10 8 8 8 7 7 6 5 4 4 5 5 7 7 10 12 13 12 10 10 9 11 10
Wind_Direction
188 178 178 166 150 99 108 97 96 79 86 75 79 73 62 76 77 70 67 64 52 44 37 30 39 63 57 56 64 73 80 75 70 65 79 86 104 115 116 116 112 106 104
153 171 184 166 129 117 115 112 110 103 87 69 67 72 60 61 59 59 58 57 54 48 41 35 34 45 52 52 57 68 73 73 74 72 60 86 89 111 121 118 113 113 117
151 164 165 142 139 128 124 108 90 92 88 78 73 65 63 56 45 42 43 45 47 49 47 45 43 44 43 45 53 73 80 80 80 77 69 90 99 107 103 120 123 126 119
155 157 161 156 138 133 113 102 96 89 92 90 85 74 71 69 67 60 54 48 40 40 48 46 50 46 46 41 47 65 84 91 89 84 98 93 58 122 132 156 136 125 127
157 152 156 163 144 133 118 112 106 104 97 92 83 82 68 64 68 60 57 53 54 50 43 41 43 52 45 41 41 48 85 96 76 69 63 71 51 18 133 170 133 137 142
154 154 158 159 144 132 125 111 108 112 101 96 89 72 79 67 68 61 60 52 54 55 55 51 38 42 44 37 36 55 92 85 68 55 44 40 12 3 353 323 135 166 162
162 161 159 152 143 132 124 119 111 110 106 98 92 89 82 78 77 72 62 62 55 50 58 51 44 41 37 39 32 81 96 81 62 51 44 40 23 353 328 341 296 245 226
160 163 162 151 145 139 134 125 117 115 110 104 101 95 89 82 77 79 73 66 59 59 59 55 50 49 48 43 37 62 78 57 56 45 38 24 11 5 4 291 306 270 264
161 164 160 156 147 138 136 130 125 121 115 110 107 101 93 86 83 81 74 70 63 63 60 59 55 51 50 50 48 48 59 55 54 43 36 19 4 0 3 354 312 279 242
170 168 155 151 151 149 143 135 131 126 120 116 109 100 93 85 84 83 72 73 67 67 63 61 60 56 53 52 50 51 50 43 46 39 37 19 9 2 356 344 331 313 241
183 170 160 153 148 145 142 139 133 129 125 115 108 102 95 90 81 81 80 75 74 69 66 63 62 59 58 53 49 48 51 43 48 44 35 15 18 17 353 343 323 327 262
191 179 173 161 157 152 140 134 126 119 126 120 113 111 100 101 91 89 84 82 74 74 67 65 61 57 55 50 44 45 48 45 47 46 38 24 21 28 29 28 21 3 335
193 187 186 173 166 161 155 149 143 140 135 124 124 121 112 109 105 97 96 87 80 69 66 63 57 54 60 56 54 54 46 46 44 51 36 31 32 30 28 26 22 24 23
194 191 184 182 176 175 159 163 153 154 150 143 138 132 132 123 117 110 104 97 88 78 76 68 67 70 70 64 60 59 51 47 39 49 41 29 31 28 26 24 17 17 13
199 193 190 182 184 178 175 165 163 162 159 146 143 142 139 133 129 123 111 105 98 96 85 78 72 68 67 65 62 55 54 57 47 47 40 28 29 23 20 16 11 10 7
200 197 189 191 189 180 181 175 171 166 157 158 151 150 145 143 139 135 129 119 110 103 97 89 76 70 69 61 62 51 51 57 52 46 32 33 31 26 20 14 10 6 359
203 197 195 190 188 189 188 178 174 172 168 165 159 155 153 152 150 145 142 134 126 117 112 106 91 73 68 63 59 48 39 61 55 31 36 37 23 29 20 15 8 4 358
203 200 195 190 191 192 188 181 177 178 175 168 166 162 161 158 156 151 151 146 143 132 124 109 102 85 60 37 25 28 27 99 77 43 40 32 21 11 9 9 6 2 357
203 200 196 192 191 191 188 183 182 179 179 175 171 170 167 165 164 159 161 155 154 138 132 125 104 66 41 22 355 353 348 263 183 234 34 29 18 6 354 352 354 355 353
209 205 198 194 194 187 179 176 177 180 186 180 179 179 172 171 168 165 164 163 161 148 143 136 111 93 48 1 334 336 345 340 228 274 305 344 349 340 344 338 343 341 338
208 201 199 193 194 179 174 175 186 192 188 188 188 182 178 175 173 172 169 167 168 164 153 148 117 78 72 7 335 336 338 349 276 281 297 311 330 322 335 327 327 326 324
205 203 198 197 188 191 188 186 188 179 194 188 186 187 183 182 179 176 174 174 172 156 159 158 154 132 94 32 2 327 343 337 337 315 318 305 309 303 316 312 315 313 317
210 205 200 198 193 190 186 168 133 142 122 180 194 192 193 187 182 182 179 175 172 171 169 169 169 163 152 125 147 346 300 313 325 299 319 301 296 312 314 315 314 316 313
213 209 206 201 193 190 181 180 181 187 181 197 188 184 187 189 185 185 180 180 177 173 171 172 177 172 166 188 188 216 239 284 307 308 289 302 302 301 306 296 293 300 296
218 209 205 200 196 191 187 188 188 192 190 171 174 178 187 187 189 186 185 182 179 180 179 180 175 185 190 206 215 213 227 234 246 253 287 290 287 285 281 279 281 286 290
230 214 203 201 201 190 189 189 189 189 179 167 174 180 183 183 183 189 186 183 181 180 181 187 188 194 198 217 226 230 243 262 278 266 273 285 291 291 290 284 272 277 284